| time (UTC) | temp F | wind direction | speed MPH | gust MPH | rain 1hr in | rain 24hr in | rain mn in | humidity % | barometer mb |
| 20260507041606 | 68 | 263 | 1.0 | 7.0 | 0.00 | 0.00 | 0.00 | 28 | 1016.4 |
| 20260507001546 | 76 | 141 | 6.0 | 10.0 | 0.00 | 0.00 | 0.00 | 21 | 1013.8 |
| 20260507000108 | 79 | 119 | 7.0 | 13.0 | 0.00 | 0.00 | 0.00 | 19 | 1013.5 |
| 20260506234525 | 81 | 168 | 4.0 | 8.0 | 0.00 | 0.00 | 0.00 | 18 | 1013.3 |
| 20260506220042 | 81 | 135 | 2.0 | 9.0 | 0.00 | 0.00 | 0.00 | 21 | 1014.4 |
| 20260506214543 | 79 | 117 | 3.0 | 8.0 | 0.00 | 0.00 | 0.00 | 21 | 1014.6 |
| 20260506213041 | 80 | 25 | 3.0 | 6.0 | 0.00 | 0.00 | 0.00 | 19 | 1015.0 |
| 20260506203035 | 77 | 120 | 1.0 | 6.0 | 0.00 | 0.00 | 0.00 | 23 | 1015.7 |
| 20260506194545 | 74 | 210 | 2.0 | 7.0 | 0.00 | 0.00 | 0.00 | 24 | 1016.2 |
| 20260506193031 | 75 | 65 | 2.0 | 5.0 | 0.00 | 0.00 | 0.00 | 24 | 1016.4 |
| 20260506191541 | 73 | 298 | 1.0 | 4.0 | 0.00 | 0.00 | 0.00 | 26 | 1016.6 |
| 20260506190024 | 73 | 105 | 1.0 | 6.0 | 0.00 | 0.00 | 0.00 | 27 | 1016.9 |
| 20260506184536 | 70 | 10 | 3.0 | 6.0 | 0.00 | 0.00 | 0.00 | 27 | 1017.0 |
| 20260506183038 | 70 | 280 | 1.0 | 6.0 | 0.00 | 0.00 | 0.00 | 28 | 1017.3 |
| 20260506181543 | 69 | 186 | 3.0 | 6.0 | 0.00 | 0.00 | 0.00 | 30 | 1017.4 |
| 20260506180031 | 69 | 351 | 2.0 | 7.0 | 0.00 | 0.00 | 0.00 | 29 | 1017.4 |
| 20260506174533 | 69 | 120 | 2.0 | 5.0 | 0.00 | 0.00 | 0.00 | 30 | 1017.6 |
| 20260506173034 | 68 | 229 | 2.0 | 7.0 | 0.00 | 0.00 | 0.00 | 29 | 1017.7 |
| 20260506171524 | 67 | 114 | 1.0 | 6.0 | 0.00 | 0.00 | 0.00 | 32 | 1017.7 |
| 20260506170049 | 65 | 20 | 1.0 | 6.0 | 0.00 | 0.00 | 0.00 | 32 | 1017.8 |
| 20260506164522 | 65 | 129 | 0.0 | 6.0 | 0.00 | 0.00 | 0.00 | 33 | 1017.8 |
| 20260506163038 | 64 | 78 | 3.0 | 6.0 | 0.00 | 0.00 | 0.00 | 35 | 1017.9 |
| 20260506160030 | 62 | 41 | 1.0 | 3.0 | 0.00 | 0.00 | 0.00 | 37 | 1018.0 |
| 20260506154532 | 62 | 194 | 1.0 | 3.0 | 0.00 | 0.00 | 0.00 | 36 | 1017.9 |
| 20260506153040 | 59 | 120 | 0.0 | 2.0 | 0.00 | 0.00 | 0.00 | 40 | 1018.0 |
| 20260506151602 | 58 | 77 | 1.0 | 4.0 | 0.00 | 0.00 | 0.00 | 39 | 1017.9 |
| 20260506143032 | 55 | 349 | 0.0 | 3.0 | 0.00 | 0.00 | 0.00 | 43 | 1017.7 |
| 20260506141541 | 54 | 350 | 1.0 | 2.0 | 0.00 | 0.00 | 0.00 | 43 | 1017.7 |
| 20260506140036 | 55 | 98 | 0.0 | 1.0 | 0.00 | 0.00 | 0.00 | 43 | 1017.6 |
| 20260506134526 | 53 | 224 | 0.0 | 1.0 | 0.00 | 0.00 | 0.00 | 46 | 1017.6 |
| 20260506133033 | 49 | 220 | 0.0 | 0.0 | 0.00 | 0.00 | 0.00 | 52 | 1017.4 |
| 20260506131527 | 45 | 220 | 0.0 | 0.0 | 0.00 | 0.00 | 0.00 | 59 | 1017.3 |